Find Starlink 1392

NORAD ID: 45677 Int'l Des: 2020-035 Owner: SPXS Country: US Constellation: starlink operational
LEOCIRCULAR

当前视图

正在加载3D地球...

About Starlink 1392

Starlink 1392 (NORAD 45677) is a starlink constellation satellite (v1.0) launched Jun 4, 2020 by SPXS of US. It operates in LEO, CIRCULAR orbit with a mass of 260.00 kg.

关于 Starlink 1392

正在加载描述...

即将过境

Passes for default location (London). Set your location on the main map for personalized predictions.

高度历史

Loading altitude history...

两行轨道根数

1 45677U 20035W 26170.80505948 .00046816 00000-0 11736-2 0 9999
2 45677 53.1522 307.5133 0002499 276.6083 83.4638 15.39608792334436
Epoch: Jun 19, 2026 • Age: 41 hours

当前状态

高度 448.4 km
速度 7.65 km/s
星下点 25.29°N, 129.03°W
发射日期 Jun 4, 2020
运行时间 6 years
类型 internet

技术详情

分类 Payload
质量 260.00 kg
干质量 248.00 kg
总质量 260.00 kg
长度 0.20 m
直径 2.80 m
跨度 9.00 m
形状 Box + pan
制造商 SPXS
平台类型 Starlink
阶段状态 In Orbit
所有者/国家 SPXS/US

Most Searched